sat.trackr.live / text

‹ back to catalog

TPA-1

NORAD 64533 · 2025-135F

PAYLOAD ACTIVE UNKNOWN

§ Identity

Operator
Country
NZ
Launch date
2025-06-23
Launch site
AFWTR
Launch vehicle
Mass (kg)
RCS (m²)

External: N2YO · Heavens-Above · Gunter

§ Orbital elements

Epoch: 2026-09-21T20:29:01.015008Z

Period
94.59 min
Inclination
97.4764°
Eccentricity
0.0004700
Mean motion
15.22400222 rev/d
Perigee alt
495.4 km
Apogee alt
501.8 km
Semi-major
6,876.7 km
B*
1.1057e-4
RAAN
19.1443°
Arg perigee
193.1583°
Mean anomaly
166.9531°
Rev number
6,955

§ Raw data

TPA-11 64533U 25135F   26264.85348397  .00002484  00000+0  11057-3 0  99982 64533  97.4764  19.1443 0004700 193.1583 166.9531 15.22400222 69559

JSON: /api/v1/satellites/64533 · /tle

For live sub-satellite position, see the globe view (requires WebGL).

§ Visibility from observer

Set your observer location to see the next 7 days of passes ≥ 10°. The values pass through the URL so the page stays shareable.

No JS? Fill the form by hand. The geolocation button needs JavaScript.

§ Radio — SatNOGS DB

ModeDescriptionDownlinkUplink
GMSK Mode S - Transmitter 2.221 GHz
GFSK Mode U - GFSK9k6 401.900 MHz
GFSK Mode U - GFSK2k4 (inactive) 401.900 MHz

3 transmitters · refreshed weekly from db.satnogs.org